Location: Agua Amarilla
(10.0342°N, 66.8490°W)
Time: 11:28:09
(UTC+00:00)

GPS 2-14 Rocket1 - Pass Details

Date: 26 June 2022
Orbit: 466 x 524 km, 20.7° (Epoch: 18 August)

Event Time Altitude Azimuth Distance (km) Brightness Sun altitude
Rises 23:02:31 0° 261° (W) 2,635 7.4 -3.3°
Reaches altitude 10° 23:04:49 10° 266° (W) 1,751 6.6 -3.8°
Maximum altitude 23:08:47 51° 343° (NNW) 660 3.6 -4.7°
Drops below altitude 10° 23:12:45 10° 60° (ENE) 1,751 5.1 -5.6°
Sets 23:15:03 0° 65° (ENE) 2,635 5.9 -6.1°
